Voltar ao catálogo

COSMOS 1642

AtivoNavegaçãoLEO
NORAD 15624·PAYLOAD·🇷🇺 Russia

Lançado Mar 21, 1985 de Plesetsk Cosmodrome

Loading…

Próximas Passagens (próximas 24 horas)

TLE

AtualizadoSource: Space-Track

Época: Sep 14, 2026, 07:32 UTC

1 15624U 85023H   26257.31438373 -.00000012  00000-0  24061-4 0  9991
2 15624  74.0592   7.7622 0050640  52.6885 334.5890 12.56394437902669

Acompanhe COSMOS 1642 em tempo real com AllMySat

Download on the App Store